CDT,Max TemperatureF,Mean TemperatureF,Min TemperatureF,Max Dew PointF,MeanDew PointF,Min DewpointF,Max Humidity, Mean Humidity, Min Humidity, Max Sea Level PressureIn, Mean Sea Level PressureIn, Min Sea Level PressureIn, Max VisibilityMiles, Mean VisibilityMiles, Min VisibilityMiles, Max Wind SpeedMPH, Mean Wind SpeedMPH, Max Gust SpeedMPH,PrecipitationIn, CloudCover, Events, WindDirDegrees
2013-10-1,66,55,44,55,43,34,100,59,30,29.93,29.73,29.52,10,10,10,18,6,28,0.00,0,Rain,254
2013-10-2,71,54,37,52,44,36,100,81,33,30.02,29.98,29.94,10,10,4,7,2,,0.02,1,Rain-Thunderstorm,218
2013-10-3,62,54,46,52,49,46,100,88,59,30.05,29.98,29.94,10,10,4,8,2,,0.05,0,Rain,40
2013-10-4,55,52,48,50,47,39,100,84,62,30.12,30.07,29.98,10,10,10,12,5,25,0.01,8,,52
2013-10-5,51,48,46,48,46,39,100,96,62,29.98,29.87,29.77,10,6,2,12,7,25,0.65,8,Rain-Thunderstorm,67
2013-10-6,53,46,39,46,43,37,100,91,67,29.81,29.78,29.74,10,9,2,14,5,20,0.05,6,Rain,350
2013-10-7,60,46,33,48,39,34,100,83,42,29.95,29.89,29.80,10,9,0,12,3,16,0.00,1,Fog,292
2013-10-8,75,55,35,48,44,36,100,68,36,29.90,29.76,29.67,10,10,7,18,5,25,0.00,0,,164
2013-10-9,71,58,46,54,49,45,100,73,50,30.01,29.94,29.80,10,10,7,9,5,,0.00,0,,182
2013-10-10,71,58,44,54,50,45,100,76,50,30.01,29.91,29.84,10,10,7,15,4,21,0.00,0,,144
2013-10-11,71,62,53,57,52,48,100,77,46,29.86,29.71,29.52,10,10,7,21,8,33,0.12,2,Rain-Thunderstorm,138
2013-10-12,55,48,42,54,45,39,100,88,76,30.13,29.78,29.54,10,9,4,16,11,25,0.02,8,Rain,228
2013-10-13,57,44,32,39,34,30,100,77,36,30.38,30.31,30.13,10,10,10,9,3,,0.00,1,,262
2013-10-14,50,44,37,43,39,36,100,89,62,30.40,30.27,30.08,10,10,4,9,2,,0.11,7,Rain,87
2013-10-15,44,43,42,45,42,39,100,94,87,30.08,29.90,29.83,10,9,2,13,8,25,0.16,8,Rain,31
2013-10-16,55,42,30,43,35,30,100,84,44,29.94,29.88,29.81,10,8,0,8,3,,0.00,2,Fog,246
2013-10-17,48,39,30,43,40,30,100,94,82,29.88,29.81,29.77,10,9,3,8,2,17,0.00,7,Rain,335
2013-10-18,50,39,28,36,32,25,100,78,43,29.92,29.86,29.75,10,10,10,14,4,17,0.00,5,Rain,266
2013-10-19,44,35,26,36,32,27,100,85,57,29.76,29.71,29.66,10,10,7,9,4,,0.01,5,Rain,295
2013-10-20,37,30,24,36,30,23,100,94,69,29.84,29.73,29.67,10,7,0,15,2,24,0.08,7,Rain-Snow,322
2013-10-21,33,30,28,30,25,19,87,77,64,29.91,29.86,29.84,10,10,5,17,10,26,0.00,8,Snow,288
2013-10-22,41,36,30,30,29,25,93,79,53,29.99,29.96,29.90,10,10,10,9,4,,0.00,8,Snow,314
2013-10-23,33,32,30,28,22,18,87,70,60,30.07,30.01,29.95,10,10,7,10,5,16,0.00,8,Snow,305
2013-10-24,41,36,28,30,27,25,93,75,56,30.25,30.17,30.07,10,10,7,14,6,20,0.00,8,,291
2013-10-25,53,38,24,37,29,23,100,72,47,30.24,29.94,29.68,10,10,10,17,5,28,0.00,2,,230
2013-10-26,39,36,28,32,28,25,86,70,61,30.07,29.98,29.79,10,10,10,15,10,26,0.00,7,,295
2013-10-27,48,38,28,30,27,21,93,69,50,30.25,29.91,29.72,10,10,10,14,7,23,0.00,3,,322
2013-10-28,37,28,19,21,18,16,93,69,41,30.50,30.43,30.26,10,10,10,9,4,,0.00,1,,38
2013-10-29,33,26,19,30,25,18,93,88,69,30.44,30.28,30.11,10,9,1,4,0,,0.00,5,Snow,130
2013-10-30,39,36,32,39,35,30,100,96,93,30.10,29.90,29.66,10,6,0,4,0,,0.04,8,Fog-Rain,140
2013-10-31,39,38,37,39,38,37,100,98,93,29.66,29.48,29.39,10,3,0,7,1,,0.00,8,Fog-Rain,305